TimePST,TemperatureF,Dew PointF,Humidity,Sea Level PressureIn,VisibilityMPH,Wind Direction,Wind SpeedMPH,Gust SpeedMPH,PrecipitationIn,Events,Conditions,WindDirDegrees,DateUTC
12:20 AM,28.4,23.0,80,30.16,2.5,Calm,Calm,-,N/A,,Haze,0,2013-01-06 08:20:00
12:53 AM,28.0,23.0,81,30.21,2.0,Calm,Calm,-,N/A,,Haze,0,2013-01-06 08:53:00
1:15 AM,28.4,23.0,80,30.14,2.0,Calm,Calm,-,N/A,,Haze,0,2013-01-06 09:15:00
1:53 AM,28.0,21.9,78,30.21,2.5,Calm,Calm,-,N/A,,Haze,0,2013-01-06 09:53:00
2:02 AM,28.4,23.0,80,30.15,3.0,Calm,Calm,-,N/A,,Haze,0,2013-01-06 10:02:00
2:53 AM,28.0,23.0,81,30.20,3.0,Calm,Calm,-,N/A,,Haze,0,2013-01-06 10:53:00
3:53 AM,28.0,23.0,81,30.20,3.0,Calm,Calm,-,N/A,,Haze,0,2013-01-06 11:53:00
4:10 AM,28.4,23.0,80,30.13,2.5,Calm,Calm,-,N/A,,Haze,0,2013-01-06 12:10:00
4:53 AM,27.0,23.0,85,30.19,2.5,Calm,Calm,-,N/A,,Overcast,0,2013-01-06 12:53:00
5:06 AM,28.4,23.0,80,30.12,2.5,Calm,Calm,-,N/A,,Haze,0,2013-01-06 13:06:00
5:27 AM,28.4,23.0,80,30.12,3.0,Calm,Calm,-,N/A,,Haze,0,2013-01-06 13:27:00
5:50 AM,28.4,23.0,80,30.12,2.5,Calm,Calm,-,N/A,,Haze,0,2013-01-06 13:50:00
5:53 AM,28.0,23.0,81,30.18,2.5,Calm,Calm,-,N/A,,Haze,0,2013-01-06 13:53:00
6:06 AM,26.6,21.2,80,30.12,5.0,Calm,Calm,-,N/A,,Haze,0,2013-01-06 14:06:00
6:53 AM,25.0,19.9,81,30.20,5.0,Calm,Calm,-,N/A,,Haze,0,2013-01-06 14:53:00
7:53 AM,26.1,19.9,78,30.20,5.0,Calm,Calm,-,N/A,,Haze,0,2013-01-06 15:53:00
8:19 AM,24.8,19.4,80,30.14,2.5,Calm,Calm,-,N/A,,Haze,0,2013-01-06 16:19:00
8:53 AM,26.1,19.9,78,30.22,2.0,Calm,Calm,-,N/A,,Haze,0,2013-01-06 16:53:00
9:02 AM,26.6,21.2,80,30.17,1.5,Calm,Calm,-,N/A,,Haze,0,2013-01-06 17:02:00
9:25 AM,26.6,21.2,80,30.17,1.0,SW,3.5,-,N/A,,Overcast,220,2013-01-06 17:25:00
9:36 AM,26.6,21.2,80,30.17,0.5,Calm,Calm,-,N/A,Fog,Light Freezing Fog,0,2013-01-06 17:36:00
10:53 AM,27.0,21.9,81,30.23,0.8,Calm,Calm,-,N/A,,Haze,0,2013-01-06 18:53:00
11:53 AM,28.0,23.0,81,30.20,0.8,Calm,Calm,-,N/A,,Haze,0,2013-01-06 19:53:00
12:04 PM,26.6,21.2,80,30.13,1.2,South,4.6,-,N/A,,Haze,180,2013-01-06 20:04:00
12:43 PM,28.4,21.2,74,30.11,1.0,Calm,Calm,-,N/A,,Haze,0,2013-01-06 20:43:00
12:50 PM,28.4,21.2,74,30.11,0.5,Calm,Calm,-,N/A,,Haze,0,2013-01-06 20:50:00
12:53 PM,28.0,21.9,78,30.17,0.5,West,3.5,-,N/A,,Haze,270,2013-01-06 20:53:00
1:53 PM,28.0,23.0,81,30.16,0.8,Calm,Calm,-,N/A,,Haze,0,2013-01-06 21:53:00
2:06 PM,28.4,23.0,80,30.09,1.0,Calm,Calm,-,N/A,,Haze,0,2013-01-06 22:06:00
2:15 PM,28.4,23.0,80,30.09,1.5,Calm,Calm,-,N/A,,Haze,0,2013-01-06 22:15:00
2:22 PM,28.4,23.0,80,30.09,3.0,Calm,Calm,-,N/A,,Haze,0,2013-01-06 22:22:00
2:32 PM,28.4,23.0,80,30.09,2.5,Calm,Calm,-,N/A,,Haze,0,2013-01-06 22:32:00
2:53 PM,28.0,23.0,81,30.16,3.0,North,-9999.0,-,N/A,,Haze,0,2013-01-06 22:53:00
3:43 PM,28.4,23.0,80,30.08,2.5,North,-9999.0,-,N/A,,Haze,0,2013-01-06 23:43:00
3:53 PM,28.0,23.0,81,30.14,2.5,Calm,Calm,-,N/A,,Haze,0,2013-01-06 23:53:00
4:39 PM,28.4,23.0,80,30.08,1.8,Calm,Calm,-,N/A,,Haze,0,2013-01-07 00:39:00
4:48 PM,28.4,23.0,80,30.07,2.5,Calm,Calm,-,N/A,,Haze,0,2013-01-07 00:48:00
4:53 PM,27.0,23.0,85,30.13,2.5,Calm,Calm,-,N/A,,Overcast,0,2013-01-07 00:53:00
5:29 PM,28.4,23.0,80,30.07,3.0,Calm,Calm,-,N/A,,Haze,0,2013-01-07 01:29:00
5:53 PM,28.0,21.9,78,30.13,3.0,Calm,Calm,-,N/A,,Haze,0,2013-01-07 01:53:00
6:08 PM,28.4,21.2,74,30.07,1.8,Calm,Calm,-,N/A,,Haze,0,2013-01-07 02:08:00
6:44 PM,26.6,21.2,80,30.06,0.8,Calm,Calm,-,N/A,,Haze,0,2013-01-07 02:44:00
6:53 PM,27.0,23.0,85,30.13,0.5,Calm,Calm,-,N/A,Fog,Light Freezing Fog,0,2013-01-07 02:53:00
7:53 PM,27.0,21.9,81,30.12,0.5,Calm,Calm,-,N/A,,Haze,0,2013-01-07 03:53:00
8:53 PM,27.0,21.9,81,30.12,0.2,Calm,Calm,-,N/A,,Haze,0,2013-01-07 04:53:00
9:53 PM,27.0,21.9,81,30.11,0.2,West,3.5,-,N/A,,Haze,280,2013-01-07 05:53:00
10:53 PM,26.1,21.9,84,30.10,0.5,Calm,Calm,-,N/A,Fog,Light Freezing Fog,0,2013-01-07 06:53:00
11:33 PM,26.6,21.2,80,30.02,1.2,Calm,Calm,-,N/A,,Haze,0,2013-01-07 07:33:00
11:53 PM,27.0,21.9,81,30.07,1.0,ENE,3.5,-,N/A,,Haze,70,2013-01-07 07:53:00